[[{"header":{"parameterUnit":"m.s-1","parameterCategory":1,"la1":30.2991,"la2":30.254,"lo1":-89.0895,"lo2":-89.0444,"dy":0.0017,"dx":0.0017,"nx":28,"ny":28,"refTime":"2025-04-05T21:00:00:Z","depth":0,"parameterNumber":2,"parameterNumberName":"U-component_of_WINDS"},"data":[0,0,0,0,0,0,0,0,0,0,0,0,0,0,0,0,0,0,0,0,0,0,0,0,0,0,0,0,0,0,0,0,0,0,0,0,0,0,0,0,0,0,0,0,0,0,0,0,0,0,0,0,0,0,0,0,0,0,4.0653,4.0654,0,4.0689,4.0689,4.0689,4.0639,4.0637,4.0636,4.0634,4.0667,4.067,4.0672,0,0,0,0,0,0,0,0,0,0,0,0,0,4.0541,4.0543,4.0653,4.0654,4.0654,4.0688,4.0689,4.0689,4.0639,4.0637,4.0635,4.0633,4.0667,4.067,4.0673,0,0,0,0,0,0,0,0,0,0,0,0,0,4.0584,4.0544,4.0653,4.0633,4.0632,4.0688,4.0689,4.069,4.064,4.0637,4.0635,4.0632,4.0666,4.0669,4.0673,4.075,0,0,4.0685,4.0686,0,0,0,0,0,0,0,0,4.0582,4.0588,4.0636,4.0635,4.0633,4.0657,4.0661,4.071,4.0641,4.0637,4.0634,4.0631,4.0666,4.0669,4.0682,4.0751,4.0753,4.0685,4.0687,4.0689,4.069,0,0,0,0,0,0,0,4.0579,4.0586,4.0667,4.0637,4.0635,4.0622,4.0625,4.067,4.0666,4.0637,4.0633,4.0638,4.0665,4.0678,4.0682,4.0753,4.0685,4.0688,4.0691,4.0692,4.0888,4.0891,0,0,0,0,0,0,4.0578,4.0584,4.0666,4.0668,4.0601,4.0626,4.063,4.0652,4.0665,4.0665,4.0641,4.0636,4.0673,4.0678,4.0683,4.0774,4.0689,4.0692,4.0695,4.0885,4.0889,4.0892,0,0,0,0,0,0,4.0576,4.0586,4.0664,4.0625,4.0634,4.0631,4.0656,4.0654,4.0668,4.0668,4.0667,4.0656,4.0671,4.0678,4.0734,4.0774,4.0694,4.0698,4.0882,4.0886,4.089,4.0956,0,0,0,0,0,0,4.0573,4.0586,4.0615,4.0626,4.0637,4.0715,4.0659,4.0657,4.0675,4.0669,4.0682,4.0681,4.067,4.0728,4.0738,4.0778,4.0701,4.0878,4.0884,4.0889,4.095,4.0962,4.0973,0,0,0,0,0,4.0569,4.0631,4.0617,4.0627,4.0673,4.0718,4.0723,4.071,4.0678,4.0707,4.0708,4.0681,4.0769,4.0735,4.0745,4.0787,4.0875,4.0882,4.0888,4.0945,4.096,4.0972,0,0,0,0,0,0,4.0623,4.0632,4.0616,4.0684,4.0701,4.0709,4.0745,4.0725,4.075,4.0744,4.0725,4.0728,4.0789,4.0793,4.0755,4.0862,4.0817,4.0826,4.0857,4.0871,4.0881,4.0878,4.0704,0,0,0,0,0,4.0643,4.0679,4.0685,4.0744,4.0753,4.0748,4.0767,4.0755,4.0771,4.0778,4.0782,4.0798,4.083,4.085,4.0879,4.0951,4.0953,4.0986,4.0997,4.1006,4.1013,4.1052,4.1067,4.0913,4.0913,4.0913,0,0,4.0684,4.0693,4.0717,4.0755,4.0766,4.0804,4.0754,4.0795,4.0823,4.0784,4.0837,4.0841,4.0858,4.0923,4.0951,4.0928,4.1056,4.1014,4.1021,4.1024,4.1061,4.1075,4.1088,4.0918,4.0917,4.0916,0,0,4.0777,4.0789,4.0839,4.0853,4.0871,4.0868,4.0881,4.0893,4.0894,4.0948,4.092,4.0952,4.1007,4.102,4.1034,4.1135,4.1111,4.1145,4.1202,4.1241,4.1253,4.1263,4.1299,4.1313,4.1153,4.1153,4.1153,0,4.0825,4.0881,4.0868,4.0912,4.0929,4.0898,4.0949,4.0962,4.0989,4.1001,4.0976,4.1045,4.1054,4.1121,4.1146,4.1159,4.1172,4.1143,4.1252,4.1263,4.1273,4.1307,4.132,4.1157,4.1157,4.1156,4.1156,0,4.094,4.0979,4.1018,4.1046,4.1068,4.1115,4.1109,4.1133,4.112,4.1119,4.1175,4.1185,4.1216,4.1231,4.1218,4.1298,4.1283,4.1256,4.1209,4.1291,4.1323,4.1336,4.1163,4.1161,4.116,4.1159,0,0,4.1065,4.1088,4.1102,4.1115,4.1135,4.1165,4.1211,4.1243,4.1263,4.1284,4.1322,4.137,4.1345,4.1361,4.135,4.1384,4.1464,4.1352,4.1352,4.1372,4.1551,4.1571,4.1587,4.1449,4.1451,4.1453,4.155,0,4.1159,4.124,4.123,4.1307,4.1343,4.1315,4.1355,4.1372,4.1373,4.1403,4.1404,4.1439,4.1403,4.1413,4.1445,4.1447,4.1499,4.144,4.1483,4.1485,4.1478,4.1603,4.1624,4.1715,4.1562,4.1564,4.1566,0,4.1278,4.1304,4.1386,4.1401,4.1416,4.1452,4.1481,4.1511,4.1529,4.1528,4.1547,4.153,4.1576,4.1531,4.1594,4.1554,4.1571,4.1575,4.1578,4.1581,4.1529,4.1608,4.1744,4.1757,4.1585,4.1584,4.1582,0,4.1361,4.1417,4.1473,4.1485,4.1505,4.1531,4.1541,4.1556,4.1576,4.1601,4.1614,4.1644,4.166,4.1684,4.1676,4.1643,4.1741,4.1694,4.174,4.174,4.176,4.1759,4.19,4.1774,4.1773,4.1773,4.1773,0,4.1466,4.1517,4.1511,4.1546,4.1602,4.159,4.1646,4.1652,4.1666,4.1701,4.1678,4.1711,4.1699,4.1731,4.1725,4.1779,4.1786,4.1786,4.1783,4.1787,4.1787,4.1797,4.179,4.1777,4.1776,4.1775,4.1775,0,4.1568,4.1566,4.1626,4.164,4.1645,4.1686,4.1698,4.173,4.1731,4.1775,4.1785,4.1785,4.1822,4.1817,4.1857,4.1853,4.192,4.191,4.1914,4.1911,4.1957,4.1953,4.2108,4.2128,4.199,4.1991,4.1993,0,4.1634,4.1673,4.1692,4.1715,4.1726,4.1762,4.1783,4.1774,4.1797,4.1822,4.1851,4.1886,4.1913,4.1974,4.1977,4.2008,4.1999,4.2051,4.2003,4.2006,4.1999,4.1996,4.2,4.206,4.2062,4.2063,4.2064,0,4.1752,4.175,4.1781,4.1814,4.184,4.1864,4.1886,4.1906,4.1899,4.1925,4.1963,4.1985,4.2028,4.2063,4.2093,4.2101,4.2082,4.208,4.2092,4.2095,4.2096,4.2096,4.1939,4.2076,4.2074,4.2074,4.2073,4.2072,4.1837,4.1871,4.189,4.1927,4.1943,4.1965,4.1996,4.2001,4.2033,4.2068,4.2061,4.2104,4.2122,4.2161,4.2173,4.2206,4.2187,4.2204,4.2209,4.2213,4.2218,4.2092,4.2212,4.2211,4.2211,4.2211,4.221,0,4.1953,4.1965,4.1999,4.2032,4.2061,4.2042,4.2065,4.209,4.2129,4.2149,4.2177,4.2221,4.2256,4.2263,4.2296,4.2321,4.2313,4.233,4.2327,4.233,4.2234,4.222,4.2336,4.2336,4.2336,4.2336,4.2336,4.2336,4.2017,4.2073,4.2074,4.2137,4.2148,4.2192,4.2207,4.2227,4.2242,4.2293,4.2323,4.2328,4.2342,4.2376,4.2407,4.2409,4.2421,4.2442,4.2439,4.2349,4.2337,4.2324,4.2311,4.2445,4.2445,4.2533,4.2533,4.2534]},{"header":{"parameterUnit":"m.s-1","parameterCategory":1,"la1":30.2991,"la2":30.254,"lo1":-89.0895,"lo2":-89.0444,"dy":0.0017,"dx":0.0017,"nx":28,"ny":28,"refTime":"2025-04-05T21:00:00:Z","depth":0,"parameterNumber":3,"parameterNumberName":"V-component_of_WINDS"},"data":[0,0,0,0,0,0,0,0,0,0,0,0,0,0,0,0,0,0,0,0,0,0,0,0,0,0,0,0,0,0,0,0,0,0,0,0,0,0,0,0,0,0,0,0,0,0,0,0,0,0,0,0,0,0,0,0,0,0,-5.5167,-5.5168,0,-5.5269,-5.527,-5.5272,-5.5228,-5.5226,-5.5223,-5.5221,-5.5323,-5.5328,-5.5333,0,0,0,0,0,0,0,0,0,0,0,0,0,-5.4933,-5.4938,-5.5167,-5.5169,-5.517,-5.5269,-5.5271,-5.5272,-5.5229,-5.5226,-5.5223,-5.522,-5.5321,-5.5327,-5.5333,0,0,0,0,0,0,0,0,0,0,0,0,0,-5.5035,-5.4939,-5.5167,-5.516,-5.5161,-5.5269,-5.5271,-5.5272,-5.5229,-5.5226,-5.5222,-5.5218,-5.5319,-5.5327,-5.5334,-5.5454,0,0,-5.5357,-5.536,0,0,0,0,0,0,0,0,-5.5029,-5.5044,-5.516,-5.5161,-5.5162,-5.5232,-5.5225,-5.5333,-5.523,-5.5203,-5.5221,-5.5217,-5.5296,-5.5305,-5.5332,-5.5459,-5.5463,-5.5358,-5.5362,-5.5365,-5.5367,0,0,0,0,0,0,0,-5.5022,-5.5039,-5.5208,-5.5162,-5.5163,-5.5151,-5.5162,-5.5246,-5.5269,-5.5205,-5.5202,-5.5215,-5.5295,-5.5325,-5.5334,-5.5465,-5.5357,-5.5364,-5.5369,-5.5372,-5.5695,-5.5699,0,0,0,0,0,0,-5.5015,-5.5033,-5.5204,-5.5211,-5.5085,-5.5159,-5.517,-5.5213,-5.5268,-5.5272,-5.5218,-5.5213,-5.5314,-5.5325,-5.5337,-5.5482,-5.5365,-5.5372,-5.5377,-5.5691,-5.5696,-5.5701,0,0,0,0,0,0,-5.5011,-5.5031,-5.52,-5.5121,-5.5142,-5.5167,-5.5215,-5.5217,-5.5247,-5.5278,-5.5281,-5.5244,-5.5311,-5.5327,-5.5426,-5.5485,-5.5376,-5.5383,-5.5686,-5.5693,-5.5698,-5.5771,0,0,0,0,0,0,-5.5004,-5.503,-5.5076,-5.5123,-5.5146,-5.5288,-5.5219,-5.5222,-5.526,-5.5254,-5.5303,-5.5307,-5.531,-5.5415,-5.5433,-5.5493,-5.5388,-5.5681,-5.5689,-5.5696,-5.5764,-5.5779,-5.5792,0,0,0,0,0,-5.4996,-5.5092,-5.5078,-5.5099,-5.5205,-5.5291,-5.5304,-5.5306,-5.5265,-5.5312,-5.5331,-5.5306,-5.5475,-5.5425,-5.5445,-5.5508,-5.5677,-5.5687,-5.5696,-5.5757,-5.5776,-5.5792,0,0,0,0,0,0,-5.505,-5.5098,-5.5083,-5.5198,-5.5241,-5.5284,-5.5342,-5.5326,-5.5381,-5.5372,-5.5371,-5.5382,-5.5484,-5.5506,-5.545,-5.5628,-5.557,-5.5584,-5.561,-5.5628,-5.5642,-5.5634,-5.5395,0,0,0,0,0,-5.5076,-5.5142,-5.518,-5.5277,-5.5299,-5.5317,-5.5355,-5.5352,-5.5396,-5.5414,-5.5441,-5.5484,-5.5547,-5.5589,-5.5648,-5.5767,-5.5776,-5.582,-5.5834,-5.5846,-5.5858,-5.5922,-5.5942,-5.5731,-5.5731,-5.5731,0,0,-5.5128,-5.5163,-5.5205,-5.5289,-5.5322,-5.539,-5.5333,-5.5408,-5.5458,-5.5425,-5.552,-5.5542,-5.559,-5.5699,-5.5749,-5.572,-5.5918,-5.5858,-5.5867,-5.5872,-5.5933,-5.5953,-5.5971,-5.5737,-5.5736,-5.5735,0,0,-5.526,-5.5293,-5.5377,-5.5412,-5.5463,-5.5474,-5.5495,-5.5541,-5.5554,-5.565,-5.5626,-5.5686,-5.5795,-5.583,-5.5862,-5.6008,-5.5987,-5.6028,-5.6102,-5.6165,-5.6181,-5.6196,-5.6248,-5.6267,-5.6039,-5.6039,-5.604,0,-5.5319,-5.5422,-5.5422,-5.55,-5.5537,-5.5512,-5.5597,-5.563,-5.5698,-5.5724,-5.5692,-5.5828,-5.5859,-5.5976,-5.6012,-5.6039,-5.6061,-5.6022,-5.6179,-5.6194,-5.6208,-5.6257,-5.6276,-5.6044,-5.6043,-5.6043,-5.6043,0,-5.5492,-5.5564,-5.5626,-5.5693,-5.5737,-5.5818,-5.5831,-5.5876,-5.5869,-5.5884,-5.5982,-5.6018,-5.6084,-5.6112,-5.6106,-5.6229,-5.621,-5.6179,-5.6121,-5.6232,-5.6279,-5.6298,-5.6051,-5.6049,-5.6048,-5.6046,0,0,-5.566,-5.5727,-5.575,-5.578,-5.5835,-5.589,-5.597,-5.6036,-5.6074,-5.6122,-5.6189,-5.6282,-5.6253,-5.629,-5.6288,-5.6343,-5.6456,-5.6305,-5.6306,-5.6332,-5.6593,-5.6616,-5.6638,-5.6443,-5.6446,-5.6449,-5.6589,0,-5.5795,-5.5935,-5.5939,-5.6067,-5.6133,-5.611,-5.618,-5.6221,-5.6237,-5.6295,-5.6312,-5.6378,-5.6336,-5.6358,-5.6411,-5.6431,-5.6509,-5.6421,-5.6504,-5.6507,-5.6492,-5.6662,-5.6687,-5.6817,-5.6607,-5.661,-5.6613,0,-5.5972,-5.6026,-5.6162,-5.6208,-5.6235,-5.6298,-5.6359,-5.6415,-5.6461,-5.6468,-5.651,-5.65,-5.6581,-5.6521,-5.6632,-5.6572,-5.6606,-5.6621,-5.6626,-5.6634,-5.6566,-5.6674,-5.6859,-5.6878,-5.6641,-5.6639,-5.6637,0,-5.608,-5.6188,-5.6282,-5.6309,-5.6365,-5.641,-5.6435,-5.6477,-5.6517,-5.657,-5.6596,-5.6657,-5.6691,-5.6739,-5.6745,-5.6701,-5.6857,-5.6797,-5.6865,-5.6865,-5.6898,-5.6896,-5.7091,-5.6921,-5.6921,-5.692,-5.692,0,-5.6231,-5.6315,-5.6332,-5.6391,-5.6484,-5.6486,-5.6578,-5.66,-5.6638,-5.6699,-5.6683,-5.6741,-5.6747,-5.6806,-5.6812,-5.6903,-5.6918,-5.6926,-5.6927,-5.6928,-5.6927,-5.695,-5.6941,-5.6925,-5.6924,-5.6923,-5.6922,0,-5.6368,-5.6383,-5.6485,-5.653,-5.6543,-5.661,-5.6648,-5.6704,-5.6718,-5.6797,-5.6815,-5.6838,-5.6908,-5.6919,-5.7001,-5.7004,-5.7113,-5.7105,-5.7098,-5.7097,-5.7164,-5.7157,-5.738,-5.7409,-5.7221,-5.7222,-5.7224,0,-5.6463,-5.6527,-5.6579,-5.662,-5.6648,-5.6713,-5.6754,-5.6759,-5.6802,-5.686,-5.6908,-5.6977,-5.7031,-5.7143,-5.7167,-5.7229,-5.7221,-5.7295,-5.723,-5.723,-5.7222,-5.7218,-5.7225,-5.7307,-5.7309,-5.7311,-5.7312,0,-5.663,-5.6635,-5.6694,-5.6757,-5.6807,-5.6856,-5.6903,-5.6937,-5.6948,-5.6997,-5.7069,-5.7111,-5.7195,-5.7263,-5.7325,-5.735,-5.7333,-5.7333,-5.7352,-5.7353,-5.7347,-5.7351,-5.7132,-5.7327,-5.7326,-5.7325,-5.7324,-5.7323,-5.6749,-5.6805,-5.6851,-5.6918,-5.6954,-5.6998,-5.7053,-5.7075,-5.7135,-5.7204,-5.7203,-5.7282,-5.7326,-5.7408,-5.7437,-5.7498,-5.7474,-5.7502,-5.7509,-5.7515,-5.7522,-5.7338,-5.7509,-5.7509,-5.7509,-5.7508,-5.7508,0,-5.6915,-5.6944,-5.7005,-5.7072,-5.7125,-5.7106,-5.7156,-5.7202,-5.7271,-5.7315,-5.7369,-5.7451,-5.7517,-5.7546,-5.7611,-5.7654,-5.7648,-5.7671,-5.7667,-5.7673,-5.7539,-5.7517,-5.7674,-5.7674,-5.7674,-5.7674,-5.7674,-5.7674,-5.7008,-5.7101,-5.7112,-5.7223,-5.725,-5.7328,-5.7359,-5.7399,-5.7434,-5.7527,-5.7582,-5.7601,-5.7638,-5.7705,-5.7765,-5.7771,-5.7796,-5.7822,-5.7826,-5.77,-5.7683,-5.7667,-5.7645,-5.7828,-5.7828,-5.7954,-5.7956,-5.7956]}]]